Weather History for Kerrville, TX

Change the Weather History Date:

Tuesday, July 29, 2014

  Actual Average (KHDO) Record (KHDO)
Temperature  
Mean Temperature 84 °F -  
Max Temperature 97 °F 94 °F 102 °F (1998)
Min Temperature 70 °F 70 °F 68 °F (2000)
Cooling Degree Days 18    
Growing Degree Days 34 (Base 50)    
Moisture  
Dew Point 64 °F    
Average Humidity 55    
Maximum Humidity 92    
Minimum Humidity 26    
Precipitation  
Precipitation 0.00 in - - ()
Sea Level Pressure  
Sea Level Pressure 30.11 in    
Wind  
Wind Speed 4 mph (SE)    
Max Wind Speed 13 mph    
Max Gust Speed 18 mph    
Visibility 10 miles    
Events      
Averages and records for this station are not official NWS values.
T = Trace of Precipitation, MM = Missing Value Source: NWS Daily Summary

Daily Weather History Graph

Daily Weather History Graph

Search for Another Location

Airport:

Trip Planner

Search our weather history database for the weather conditions in past years. The results will help you decide how hot, cold, wet, or windy it might be!

Date:

Astronomy

Jul. 29, 2014 Rise Set
Actual Time 6:53 AM CDT 8:31 PM CDT
Civil Twilight 6:27 AM CDT 8:57 PM CDT
Nautical Twilight 5:56 AM CDT 9:28 PM CDT
Astronomical Twilight 5:23 AM CDT 10:01 PM CDT
Moon 9:16 AM CDT (7/29) 10:01 PM CDT (7/29)
Length of Visible Light 14h 30m
Length of Day
13h 37m
Waxing Crescent, 7% of the Moon is Illuminated
Jul 29
Waxing Crescent
Aug 3
First Quarter
Aug 10
Full
Aug 17
Last Quarter
Aug 25
New

Hourly Weather History & Observations

Time (CDT) Temp. Heat Index Dew Point Humidity Pressure Visibility Wind Dir Wind Speed Gust Speed Precip Events Conditions
12:15 AM 73.9 °F - 65.3 °F 74% 30.13 in 10.0 mi SE 3.5 mph - N/A   Clear
12:35 AM 76.5 °F - 64.8 °F 67% 30.13 in 10.0 mi ESE 4.6 mph - N/A   Clear
12:55 AM 78.1 °F - 67.3 °F 69% 30.13 in 10.0 mi Calm Calm - N/A   Clear
1:15 AM 79.0 °F - 68.7 °F 71% 30.13 in 10.0 mi SSE 4.6 mph - N/A   Clear
1:35 AM 79.0 °F - 69.4 °F 72% 30.13 in 10.0 mi SE 3.5 mph - N/A   Clear
1:55 AM 79.0 °F - 70.2 °F 74% 30.13 in 10.0 mi East 3.5 mph - N/A   Clear
2:15 AM 77.9 °F - 69.8 °F 76% 30.12 in 10.0 mi ESE 3.5 mph - N/A   Clear
2:35 AM 77.9 °F - 70.2 °F 77% 30.13 in 10.0 mi SE 4.6 mph - N/A   Clear
2:55 AM 77.5 °F - 70.0 °F 77% 30.12 in 10.0 mi SE 5.8 mph - N/A   Clear
3:15 AM 76.5 °F - 69.8 °F 80% 30.12 in 10.0 mi SSE 3.5 mph - N/A   Clear
3:35 AM 76.5 °F - 69.8 °F 80% 30.12 in 10.0 mi East 3.5 mph - N/A   Clear
3:55 AM 76.5 °F - 70.5 °F 82% 30.12 in 10.0 mi SE 4.6 mph - N/A   Clear
4:15 AM 73.9 °F - 68.2 °F 82% 30.12 in 10.0 mi Calm Calm - N/A   Clear
4:35 AM 76.5 °F - 70.0 °F 80% 30.12 in 10.0 mi SE 3.5 mph - N/A   Clear
4:55 AM 73.9 °F - 68.9 °F 84% 30.12 in 10.0 mi SE 3.5 mph - N/A   Clear
5:15 AM 73.9 °F - 68.5 °F 83% 30.13 in 10.0 mi Calm Calm - N/A   Clear
5:35 AM 72.7 °F - 67.6 °F 84% 30.13 in 10.0 mi Calm Calm - N/A   Clear
5:55 AM 71.6 °F - 66.7 °F 85% 30.13 in 10.0 mi Calm Calm - N/A   Clear
6:15 AM 71.6 °F - 67.5 °F 87% 30.13 in 10.0 mi Calm Calm - N/A   Clear
6:35 AM 71.6 °F - 68.5 °F 90% 30.13 in 10.0 mi Calm Calm - N/A   Clear
6:55 AM 70.0 °F - 67.5 °F 92% 30.13 in 10.0 mi Calm Calm - N/A   Clear
7:15 AM 71.6 °F - 68.9 °F 91% 30.14 in 7.0 mi Calm Calm - N/A   Clear
7:35 AM 71.6 °F - 68.4 °F 89% 30.14 in 10.0 mi Calm Calm - N/A   Clear
7:55 AM 71.6 °F - 67.8 °F 88% 30.15 in 10.0 mi Calm Calm - N/A   Clear
8:15 AM 73.9 °F - 68.9 °F 84% 30.15 in 10.0 mi Calm Calm - N/A   Clear
8:35 AM 76.5 °F - 68.9 °F 77% 30.15 in 10.0 mi Calm Calm - N/A   Clear
8:55 AM 77.4 °F - 66.7 °F 70% 30.15 in 10.0 mi Calm Calm - N/A   Clear
9:15 AM 79.0 °F - 67.5 °F 68% 30.15 in 10.0 mi Calm Calm - N/A   Clear
9:35 AM 81.0 °F 83.9 °F 68.7 °F 66% 30.16 in 10.0 mi ESE 4.6 mph - N/A   Clear
9:55 AM 82.0 °F 84.5 °F 66.9 °F 60% 30.16 in 10.0 mi South 4.6 mph - N/A   Clear
10:15 AM 84.2 °F 86.1 °F 65.5 °F 53% 30.15 in 10.0 mi South 3.5 mph - N/A   Clear
10:35 AM 85.8 °F 86.8 °F 63.5 °F 47% 30.15 in 10.0 mi SW 3.5 mph - N/A   Clear
10:55 AM 89.1 °F 89.0 °F 61.0 °F 39% 30.16 in 10.0 mi South 6.9 mph - N/A   Clear
11:15 AM 91.6 °F 92.7 °F 63.1 °F 39% 30.16 in 10.0 mi SSE 3.5 mph - N/A   Clear
11:35 AM 91.6 °F 90.7 °F 58.6 °F 33% 30.16 in 10.0 mi SSE 8.1 mph - N/A   Clear
11:55 AM 91.6 °F 90.4 °F 57.9 °F 32% 30.15 in 10.0 mi South 8.1 mph - N/A   Clear
12:15 PM 91.9 °F 91.5 °F 59.7 °F 34% 30.15 in 10.0 mi South 9.2 mph - N/A   Clear
12:35 PM 92.3 °F 92.0 °F 60.1 °F 34% 30.14 in 10.0 mi SSE 6.9 mph - N/A   Clear
12:55 PM 92.5 °F 91.9 °F 59.7 °F 33% 30.13 in 10.0 mi SE 10.4 mph - N/A   Clear
1:15 PM 94.1 °F 93.9 °F 59.9 °F 32% 30.12 in 10.0 mi SSE 11.5 mph 16.1 mph N/A   Clear
1:35 PM 94.6 °F 93.9 °F 58.5 °F 30% 30.12 in 10.0 mi SE 8.1 mph 17.3 mph N/A   Clear
1:55 PM 94.5 °F 93.3 °F 57.9 °F 29% 30.11 in 10.0 mi ESE 4.6 mph - N/A   Clear
2:15 PM 96.8 °F 96.7 °F 59.7 °F 29% 30.10 in 10.0 mi South 9.2 mph - N/A   Scattered Clouds
2:35 PM 96.8 °F 95.8 °F 57.6 °F 27% 30.10 in 10.0 mi East 6.9 mph 17.3 mph N/A   Scattered Clouds
2:55 PM 95.5 °F 94.4 °F 57.6 °F 28% 30.09 in 10.0 mi ESE 4.6 mph - N/A   Clear
3:15 PM 96.8 °F 95.8 °F 57.7 °F 27% 30.09 in 10.0 mi SE 4.6 mph - N/A   Scattered Clouds
3:35 PM 97.0 °F 95.7 °F 57.0 °F 26% 30.08 in 10.0 mi South 9.2 mph 16.1 mph N/A   Scattered Clouds
3:55 PM 97.2 °F 96.0 °F 57.0 °F 26% 30.07 in 10.0 mi SSE 5.8 mph 17.3 mph N/A   Scattered Clouds
4:15 PM 97.0 °F 95.7 °F 56.7 °F 26% 30.06 in 10.0 mi South 6.9 mph - N/A   Clear
4:35 PM 97.2 °F 96.0 °F 57.0 °F 26% 30.05 in 10.0 mi South 6.9 mph - N/A   Mostly Cloudy
4:55 PM 96.8 °F 95.8 °F 57.6 °F 27% 30.05 in 10.0 mi SE 10.4 mph - N/A   Scattered Clouds
5:15 PM 94.1 °F 92.5 °F 56.7 °F 28% 30.06 in 10.0 mi East 9.2 mph 18.4 mph N/A   Clear
5:55 PM 96.8 °F 95.8 °F 57.2 °F 27% 30.05 in 10.0 mi SE 9.2 mph - N/A   Clear
6:15 PM 95.0 °F 93.4 °F 56.5 °F 27% 30.05 in 10.0 mi East 9.2 mph - N/A   Scattered Clouds
6:35 PM 96.3 °F 95.5 °F 57.7 °F 28% 30.04 in 10.0 mi ESE 6.9 mph - N/A   Clear
6:55 PM 94.1 °F 92.8 °F 56.8 °F 29% 30.04 in 10.0 mi SE 11.5 mph 17.3 mph N/A   Clear
7:15 PM 93.9 °F 92.6 °F 57.4 °F 29% 30.04 in 10.0 mi SE 11.5 mph - N/A   Clear
7:35 PM 92.5 °F 91.0 °F 57.0 °F 30% 30.05 in 10.0 mi SE 10.4 mph - N/A   Clear
7:55 PM 91.6 °F 90.1 °F 56.8 °F 31% 30.05 in 10.0 mi SE 10.4 mph - N/A   Clear
8:15 PM 91.6 °F 91.0 °F 59.7 °F 34% 30.05 in 10.0 mi SE 8.1 mph - N/A   Clear
8:35 PM 89.1 °F 88.2 °F 59.2 °F 36% 30.06 in 10.0 mi SE 5.8 mph - N/A   Clear
8:55 PM 86.0 °F 85.2 °F 58.1 °F 39% 30.05 in 10.0 mi SE 4.6 mph - N/A   Clear
9:15 PM 84.9 °F 84.2 °F 58.3 °F 40% 30.06 in 10.0 mi SE 4.6 mph - N/A   Clear
9:35 PM 84.2 °F 83.8 °F 59.0 °F 42% 30.06 in 10.0 mi ESE 4.6 mph - N/A   Clear
9:55 PM 84.2 °F 84.0 °F 59.7 °F 43% 30.07 in 10.0 mi East 6.9 mph - N/A   Clear
10:15 PM 83.8 °F 85.8 °F 65.5 °F 54% 30.08 in 10.0 mi East 8.1 mph - N/A   Clear
10:35 PM 82.8 °F 85.8 °F 68.2 °F 61% 30.09 in 10.0 mi East 9.2 mph - N/A   Clear
10:55 PM 82.8 °F 86.2 °F 68.9 °F 63% 30.09 in 10.0 mi East 12.7 mph 16.1 mph N/A   Clear
11:15 PM 81.5 °F 84.6 °F 68.9 °F 65% 30.09 in 10.0 mi East 10.4 mph - N/A   Clear
11:35 PM 81.5 °F 84.9 °F 69.4 °F 67% 30.09 in 10.0 mi East 11.5 mph - N/A   Clear
11:55 PM 81.5 °F 85.1 °F 70.0 °F 68% 30.09 in 10.0 mi East 9.2 mph - N/A   Clear